Weather History for KALN - February, 2013

Change the Weather History Date:

Tuesday, February 26, 2013

  Actual Average Record
Temperature  
Mean Temperature 39 °F -  
Max Temperature 42 °F 43 °F 68 °F (2009)
Min Temperature 36 °F 29 °F 7 °F (2015)
Degree Days  
Heating Degree Days 26    
Moisture  
Dew Point 35 °F    
Average Humidity 88    
Maximum Humidity 93    
Minimum Humidity 61    
Precipitation  
Precipitation 0.50 in - - ()
Sea Level Pressure  
Sea Level Pressure 29.50 in    
Wind  
Wind Speed 13 mph (NNE)    
Max Wind Speed 16 mph    
Max Gust Speed 28 mph    
Visibility 5 miles    
Events Rain    
Averages and records for this station are not official NWS values.
T = Trace of Precipitation, MM = Missing Value Source: NWS Daily Summary

Daily Weather History Graph

Daily Weather History Graph

Search for Another Location

Airport or City:

Trip Planner

Search our weather history database for the weather conditions in past years. The results will help you decide how hot, cold, wet, or windy it might be!

Date:

Astronomy

Feb. 26, 2013 Rise Set
Actual Time 6:36 AM CST 5:50 PM CST
Civil Twilight 6:09 AM CST 6:16 PM CST
Nautical Twilight 5:38 AM CST 6:47 PM CST
Astronomical Twilight 5:07 AM CST 7:18 PM CST
Moon 7:05 PM CST (2/26) 6:40 AM CST (2/26)
Length of Visible Light 12h 07m
Length of Day
11h 13m
Full, 99% of the Moon is Illuminated
Feb 26
Full
Mar 4
Last Quarter
Mar 11
New
Mar 19
First Quarter
Mar 27
Full

Hourly Weather History & Observations

Time (CST) Temp. Windchill Dew Point Humidity Pressure Visibility Wind Dir Wind Speed Gust Speed Precip Events Conditions
12:15 AM 38.3 °F 30.5 °F 33.1 °F 81% 29.62 in 4.0 mi NNE 12.7 mph 21.9 mph 0.02 in Rain Rain
12:35 AM 37.9 °F 29.2 °F 33.3 °F 83% 29.59 in 5.0 mi NNE 15.0 mph 21.9 mph 0.03 in Rain Light Rain
12:55 AM 38.3 °F 29.7 °F 33.3 °F 82% 29.58 in 7.0 mi NE 15.0 mph 27.6 mph 0.04 in Rain Rain
1:15 AM 37.8 °F 28.6 °F 33.1 °F 83% 29.57 in 3.0 mi NNE 16.1 mph 24.2 mph 0.03 in Rain Light Rain
1:35 AM 37.8 °F 30.2 °F 33.3 °F 84% 29.56 in 5.0 mi NE 11.5 mph 25.3 mph 0.05 in Rain Rain
1:55 AM 37.8 °F 29.8 °F 33.4 °F 84% 29.55 in 3.0 mi NE 12.7 mph 19.6 mph 0.09 in Rain Rain
2:15 AM 37.6 °F 29.6 °F 33.8 °F 86% 29.54 in 2.5 mi NE 12.7 mph 25.3 mph 0.04 in Rain Rain
2:35 AM 37.4 °F 29.8 °F 33.8 °F 87% 29.49 in 2.5 mi NE 11.5 mph 20.7 mph 0.10 in Rain Light Rain
2:55 AM 37.4 °F 28.5 °F 34.0 °F 87% 29.47 in 3.0 mi NE 15.0 mph 25.3 mph 0.15 in Rain Rain
3:15 AM 37.4 °F 28.5 °F 34.2 °F 88% 29.46 in 3.0 mi NE 15.0 mph 23.0 mph 0.04 in Rain Light Rain
3:35 AM 37.4 °F 28.9 °F 34.2 °F 88% 29.44 in 3.0 mi NE 13.8 mph 24.2 mph 0.10 in Rain Rain
3:55 AM 37.4 °F 28.9 °F 34.2 °F 88% 29.44 in 3.0 mi ENE 13.8 mph 25.3 mph 0.14 in Rain Rain
4:15 AM 37.4 °F 29.3 °F 34.3 °F 89% 29.43 in 4.0 mi NE 12.7 mph 21.9 mph 0.03 in Rain Light Rain
4:35 AM 37.4 °F 28.9 °F 34.5 °F 89% 29.42 in 3.0 mi NE 13.8 mph 21.9 mph 0.05 in Rain Rain
4:55 AM 37.4 °F 29.3 °F 34.5 °F 89% 29.42 in 5.0 mi NE 12.7 mph 18.4 mph 0.08 in Rain Light Rain
5:15 AM 37.4 °F 28.5 °F 34.7 °F 90% 29.40 in 7.0 mi NE 15.0 mph 20.7 mph N/A   Overcast
5:35 AM 37.6 °F 28.4 °F 34.9 °F 90% 29.40 in 3.0 mi ENE 16.1 mph 21.9 mph N/A Rain Rain
5:55 AM 37.8 °F 30.7 °F 35.2 °F 91% 29.40 in 4.0 mi ENE 10.4 mph 18.4 mph N/A   Light Drizzle
6:50 AM 39.2 °F 32.5 °F 35.6 °F 87% 29.39 in 7.0 mi ENE 10.4 mph 17.3 mph N/A   Overcast
7:50 AM 39.2 °F 31.2 °F 37.4 °F 93% 29.38 in 4.0 mi ENE 13.8 mph 19.6 mph N/A Rain Light Rain
8:50 AM 39.2 °F 30.8 °F 37.4 °F 93% 29.38 in 2.5 mi ENE 15.0 mph - N/A   Light Drizzle
9:50 AM 41.0 °F 33.5 °F 39.2 °F 93% 29.38 in 2.0 mi East 13.8 mph - N/A   Light Drizzle
11:50 AM 42.8 °F 36.6 °F 41.0 °F 93% 29.38 in 3.0 mi East 11.5 mph - N/A   Light Drizzle
12:50 PM 42.8 °F 38.6 °F 41.0 °F 93% 29.37 in 5.0 mi NNE 6.9 mph - N/A   Overcast
1:50 PM 42.8 °F 36.6 °F 39.2 °F 87% 29.38 in 5.0 mi North 11.5 mph - N/A   Overcast
2:50 PM 41.0 °F 36.4 °F 39.2 °F 93% 29.40 in 2.5 mi NNW 6.9 mph - N/A   Overcast
3:50 PM 39.2 °F 32.0 °F 26.6 °F 61% 29.43 in 2.5 mi NNW 11.5 mph - N/A   Overcast
4:50 PM 39.2 °F 31.2 °F 37.4 °F 93% 29.46 in 1.5 mi NNW 13.8 mph - N/A   Overcast
6:55 PM 37.4 °F 31.4 °F 35.6 °F 93% 29.54 in 10.0 mi WNW 8.1 mph - N/A   Overcast
9:15 PM 36.5 °F 31.0 °F 34.2 °F 91% 29.59 in 10.0 mi WNW 6.9 mph - N/A   Overcast
9:35 PM 36.5 °F 29.7 °F 34.0 °F 91% 29.60 in 10.0 mi West 9.2 mph - N/A   Overcast
9:55 PM 36.5 °F 29.2 °F 34.0 °F 91% 29.61 in 10.0 mi WNW 10.4 mph - N/A   Overcast
10:15 PM 36.5 °F 28.7 °F 33.8 °F 90% 29.62 in 10.0 mi WNW 11.5 mph - N/A   Overcast
10:35 PM 36.5 °F 28.7 °F 33.6 °F 89% 29.62 in 10.0 mi WNW 11.5 mph - N/A   Overcast
10:55 PM 36.5 °F 27.8 °F 33.4 °F 89% 29.63 in 10.0 mi West 13.8 mph - N/A   Overcast
11:15 PM 36.5 °F 28.2 °F 33.4 °F 89% 29.64 in 10.0 mi West 12.7 mph 18.4 mph N/A   Overcast
11:35 PM 36.5 °F 28.2 °F 33.3 °F 88% 29.64 in 10.0 mi West 12.7 mph - N/A   Overcast
11:55 PM 36.5 °F 27.8 °F 33.3 °F 88% 29.65 in 5.0 mi West 13.8 mph - N/A   Overcast